Stündliche Wetter Czyzeminek

Heute, 28 Oktober, Mittwoch

Zeit Temperatur Niederschläge Wind Luftdruck Luftfeuchtigkeit
00:00 +10°C° 0.1 mm 2 m/S 743 mmHg 85%
01:00 +9°C° 0 mm 2 m/S 743 mmHg 86%
02:00 +9°C° 0 mm 2 m/S 743 mmHg 85%
03:00 +9°C° 0 mm 2 m/S 743 mmHg 84%
04:00 +8°C° 0 mm 2 m/S 743 mmHg 84%
05:00 +8°C° 0 mm 2 m/S 743 mmHg 81%
06:00 +9°C° 0 mm 2 m/S 743 mmHg 78%
07:00 +9°C° 0 mm 2 m/S 743 mmHg 74%
08:00 +10°C° 0 mm 3 m/S 743 mmHg 72%
09:00 +11°C° 0 mm 4 m/S 743 mmHg 71%
10:00 +13°C° 0 mm 5 m/S 743 mmHg 69%
11:00 +13°C° 0 mm 5 m/S 743 mmHg 68%
12:00 +14°C° 0 mm 5 m/S 743 mmHg 67%
13:00 +15°C° 0 mm 5 m/S 742 mmHg 65%
14:00 +14°C° 0 mm 5 m/S 742 mmHg 67%
15:00 +14°C° 0 mm 4 m/S 743 mmHg 69%
16:00 +13°C° 0 mm 3 m/S 743 mmHg 71%
17:00 +12°C° 0 mm 3 m/S 743 mmHg 71%
18:00 +12°C° 0 mm 3 m/S 743 mmHg 72%
19:00 +11°C° 0 mm 3 m/S 743 mmHg 72%
20:00 +11°C° 0 mm 3 m/S 743 mmHg 72%
21:00 +11°C° 0 mm 3 m/S 743 mmHg 72%
22:00 +11°C° 0 mm 3 m/S 744 mmHg 72%
23:00 +10°C° 0 mm 3 m/S 743 mmHg 73%

Morgen, 29 Oktober, Donnerstag

Zeit Temperatur Niederschläge Wind Luftdruck Luftfeuchtigkeit
00:00 +10°C° 0 mm 3 m/S 743 mmHg 75%
01:00 +10°C° 0 mm 3 m/S 743 mmHg 76%
02:00 +9°C° 0 mm 3 m/S 743 mmHg 79%
03:00 +9°C° 0 mm 3 m/S 743 mmHg 82%
04:00 +8°C° 0 mm 3 m/S 743 mmHg 86%
05:00 +8°C° 0 mm 3 m/S 743 mmHg 86%
06:00 +7°C° 0 mm 4 m/S 743 mmHg 86%
07:00 +7°C° 0 mm 4 m/S 743 mmHg 86%
08:00 +8°C° 0 mm 4 m/S 743 mmHg 80%
09:00 +10°C° 0 mm 5 m/S 743 mmHg 74%
10:00 +12°C° 0 mm 5 m/S 743 mmHg 68%
11:00 +12°C° 0 mm 5 m/S 742 mmHg 68%
12:00 +11°C° 0 mm 6 m/S 742 mmHg 68%
13:00 +11°C° 0 mm 6 m/S 742 mmHg 68%
14:00 +12°C° 0.2 mm 5 m/S 742 mmHg 73%
15:00 +10°C° 0.2 mm 5 m/S 742 mmHg 77%
16:00 +9°C° 0.2 mm 5 m/S 742 mmHg 81%
17:00 +9°C° 0.1 mm 5 m/S 742 mmHg 80%
18:00 +8°C° 0.1 mm 5 m/S 743 mmHg 80%
19:00 +8°C° 0.1 mm 5 m/S 743 mmHg 79%
20:00 +7°C° 0 mm 5 m/S 744 mmHg 80%
21:00 +7°C° 0 mm 5 m/S 744 mmHg 82%
22:00 +6°C° 0 mm 5 m/S 745 mmHg 83%
23:00 +6°C° 0 mm 5 m/S 745 mmHg 82%

übermorgen, 30 Oktober, Freitag

Zeit Temperatur Niederschläge Wind Luftdruck Luftfeuchtigkeit
00:00 +6°C° 0 mm 5 m/S 745 mmHg 81%
01:00 +5°C° 0 mm 6 m/S 746 mmHg 80%
02:00 +6°C° 0 mm 5 m/S 746 mmHg 84%
03:00 +5°C° 0 mm 5 m/S 746 mmHg 88%
04:00 +5°C° 0 mm 5 m/S 747 mmHg 91%
05:00 +5°C° 0 mm 5 m/S 747 mmHg 91%
06:00 +4°C° 0 mm 4 m/S 747 mmHg 91%
07:00 +4°C° 0 mm 4 m/S 747 mmHg 91%
08:00 +5°C° 0 mm 4 m/S 747 mmHg 85%
09:00 +6°C° 0 mm 4 m/S 747 mmHg 79%
10:00 +7°C° 0 mm 4 m/S 747 mmHg 74%
11:00 +8°C° 0 mm 4 m/S 747 mmHg 69%
12:00 +8°C° 0 mm 4 m/S 746 mmHg 65%
13:00 +9°C° 0 mm 5 m/S 746 mmHg 61%
14:00 +8°C° 0.6 mm 5 m/S 745 mmHg 69%
15:00 +8°C° 0.6 mm 5 m/S 745 mmHg 78%
16:00 +7°C° 0.6 mm 5 m/S 744 mmHg 87%
17:00 +7°C° 1.6 mm 5 m/S 744 mmHg 90%
18:00 +8°C° 1.6 mm 5 m/S 744 mmHg 92%
19:00 +8°C° 1.6 mm 5 m/S 743 mmHg 95%
20:00 +9°C° 1.9 mm 5 m/S 743 mmHg 95%
21:00 +9°C° 1.9 mm 5 m/S 743 mmHg 96%
22:00 +9°C° 1.9 mm 5 m/S 743 mmHg 96%
23:00 +9°C° 0.6 mm 5 m/S 744 mmHg 95%

31 Oktober, Samstag

Zeit Temperatur Niederschläge Wind Luftdruck Luftfeuchtigkeit
00:00 +8°C° 0.6 mm 4 m/S 744 mmHg 94%
01:00 +8°C° 0.6 mm 3 m/S 744 mmHg 92%
02:00 +8°C° 0 mm 3 m/S 745 mmHg 92%
03:00 +7°C° 0 mm 3 m/S 746 mmHg 92%
04:00 +7°C° 0 mm 3 m/S 747 mmHg 91%
05:00 +5°C° 0 mm 3 m/S 748 mmHg 91%
06:00 +6°C° 0 mm 2 m/S 748 mmHg 91%
07:00 +6°C° 0 mm 1 m/S 749 mmHg 90%
08:00 +7°C° 0 mm 1 m/S 749 mmHg 84%
09:00 +8°C° 0 mm 1 m/S 750 mmHg 78%
10:00 +10°C° 0 mm 1 m/S 750 mmHg 71%
11:00 +10°C° 0 mm 1 m/S 750 mmHg 68%
12:00 +11°C° 0 mm 1 m/S 750 mmHg 64%
13:00 +11°C° 0 mm 1 m/S 751 mmHg 60%
14:00 +11°C° 0 mm 1 m/S 751 mmHg 64%
15:00 +10°C° 0 mm 1 m/S 751 mmHg 67%
16:00 +10°C° 0 mm 1 m/S 751 mmHg 71%
17:00 +9°C° 0 mm 1 m/S 751 mmHg 74%
18:00 +9°C° 0 mm 1 m/S 751 mmHg 77%
19:00 +8°C° 0 mm 1 m/S 751 mmHg 80%
20:00 +8°C° 0 mm 1 m/S 751 mmHg 82%
21:00 +7°C° 0 mm 1 m/S 752 mmHg 84%
22:00 +7°C° 0 mm 1 m/S 752 mmHg 86%
23:00 +7°C° 0 mm 1 m/S 752 mmHg 87%

1 November, Sonntag

Zeit Temperatur Niederschläge Wind Luftdruck Luftfeuchtigkeit
00:00 +7°C° 0 mm 1 m/S 752 mmHg 88%
01:00 +6°C° 0 mm 2 m/S 752 mmHg 89%
02:00 +5°C° 0 mm 2 m/S 751 mmHg 90%
03:00 +5°C° 0 mm 2 m/S 751 mmHg 90%
04:00 +5°C° 0 mm 2 m/S 751 mmHg 91%
05:00 +5°C° 0 mm 2 m/S 751 mmHg 91%
06:00 +4°C° 0 mm 3 m/S 751 mmHg 91%
07:00 +4°C° 0 mm 3 m/S 751 mmHg 92%
08:00 +5°C° 0 mm 3 m/S 751 mmHg 85%
09:00 +7°C° 0 mm 4 m/S 751 mmHg 79%
10:00 +8°C° 0 mm 4 m/S 751 mmHg 73%
11:00 +10°C° 0 mm 4 m/S 750 mmHg 70%
12:00 +9°C° 0 mm 5 m/S 750 mmHg 67%
13:00 +10°C° 0 mm 5 m/S 750 mmHg 64%
14:00 +10°C° 0 mm 4 m/S 750 mmHg 67%
15:00 +10°C° 0 mm 4 m/S 749 mmHg 71%
16:00 +8°C° 0 mm 4 m/S 749 mmHg 74%
17:00 +8°C° 0 mm 4 m/S 749 mmHg 76%
18:00 +7°C° 0 mm 4 m/S 749 mmHg 78%
19:00 +7°C° 0 mm 4 m/S 749 mmHg 81%
20:00 +6°C° 0 mm 4 m/S 749 mmHg 81%
21:00 +6°C° 0 mm 4 m/S 748 mmHg 82%
22:00 +5°C° 0 mm 4 m/S 748 mmHg 82%
23:00 +5°C° 0 mm 4 m/S 748 mmHg 82%

2 November, Montag

Zeit Temperatur Niederschläge Wind Luftdruck Luftfeuchtigkeit
00:00 +5°C° 0 mm 4 m/S 748 mmHg 82%
01:00 +5°C° 0 mm 4 m/S 748 mmHg 82%
02:00 +5°C° 0 mm 4 m/S 748 mmHg 82%
03:00 +5°C° 0 mm 4 m/S 748 mmHg 82%
04:00 +5°C° 0 mm 4 m/S 747 mmHg 81%
05:00 +5°C° 0 mm 4 m/S 748 mmHg 81%
06:00 +5°C° 0 mm 4 m/S 748 mmHg 81%
07:00 +5°C° 0 mm 4 m/S 748 mmHg 80%
08:00 +6°C° 0 mm 4 m/S 748 mmHg 76%
09:00 +7°C° 0 mm 5 m/S 748 mmHg 71%
10:00 +8°C° 0 mm 5 m/S 748 mmHg 66%
11:00 +9°C° 0 mm 5 m/S 748 mmHg 63%
12:00 +10°C° 0 mm 5 m/S 747 mmHg 60%
13:00 +12°C° 0 mm 5 m/S 747 mmHg 57%
14:00 +11°C° 0 mm 4 m/S 747 mmHg 60%
15:00 +10°C° 0 mm 4 m/S 747 mmHg 63%
16:00 +10°C° 0 mm 3 m/S 747 mmHg 66%
17:00 +8°C° 0 mm 4 m/S 747 mmHg 68%
18:00 +8°C° 0 mm 4 m/S 747 mmHg 70%
19:00 +7°C° 0 mm 4 m/S 747 mmHg 72%
20:00 +7°C° 0 mm 4 m/S 747 mmHg 75%
21:00 +6°C° 0 mm 4 m/S 747 mmHg 78%
22:00 +6°C° 0 mm 4 m/S 747 mmHg 80%
23:00 +6°C° 0 mm 4 m/S 747 mmHg 81%
Mehr zeigen

Wir brauchen deine Erlaubnis

Meteoprog und unser Service Anbieter werden persönliche Daten aufbewahren, so wie Cookies, Geräte Bezeichnung oder ähnliche Technologien von deinem Gerät und Prozess, so wie Persönliche Daten Inhalte und Werbungen, genauso wie social Media und den Verkehr zu analysieren.

  • Aufbewahrung und/oder Zugang zu deiner Geräte Informationen.

    Cookies, Geräte Bezeichnung oder andere Informationen, können aufbewahrt oder Zugang zu deinem Gerät erhalten, für den Grund, der oben angegeben wird.

  • Personalisierte Werbung und Inhalte, Messungen, Einblick in das Publikum und Produkt Entwicklung.

    Werbungen und Inhalte können personalisiert werden, basierend auf ein Profil. Mehr Daten können besser personalisierte Werbungen und Inhalte hinzufügen. Werbung und Inhalte können gezeigt und gemessen werden. Einblicke über das Publikum, welche die Werbung gesehen haben und den Inhalt, können abgeleitet werden. So wie Daten können genutzt werden, um es zu verbessern oder die Benutzer Erfahrung zu verbessern das System und die Software.

Wenn du “Ich stimme zu” klickst, erlaubst du uns, die Cookies zu benutzen die Geräte Bezeichnung, den Web oder ähnliche Technologien zu benutzen. Deine Settings, können in deinem Gerät bei deinem Browser geändert werden.

Für den bestimmten Zweck, berechtigten Interessen beruhen darauf, mehr als auf den Inhalt. Du kannst mehr darüber in unseren Privaten und Cookie Politik lesen.